UAL1347 KDEN-KBZN

Flight info

Callsign UAL1347
Flight time 1h 23m
Altitude 38000
Route DDRTH1 DDRTH RIW TOCUD LOSST1
Aircraft B38M/M-SDE1FGHILORVWXY/HB1

Departure

Time 2026-04-26 01:57
Airport Denver International Airport (KDEN)

Arrival

Time 2026-04-26 03:20
Airport Bozeman Yellowstone International Airport (KBZN)
Time Latitude Longitude Altitude Speed Heading
2026-04-26 01:35 39.85942 -104.67707 5382 ft 0 kts 180°
2026-04-26 01:36 39.85936 -104.67707 5381 ft 0 kts 180°
2026-04-26 01:47 39.85939 -104.67707 5380 ft 2 kts 180°
2026-04-26 01:47 39.85965 -104.67707 5381 ft 4 kts 182°
2026-04-26 01:47 39.85991 -104.67701 5380 ft 4 kts 203°
2026-04-26 01:48 39.86010 -104.67681 5382 ft 4 kts 244°
2026-04-26 01:48 39.86014 -104.67661 5382 ft 1 kts 270°
2026-04-26 01:48 39.86014 -104.67658 5382 ft 0 kts 270°
2026-04-26 01:50 39.86014 -104.67664 5382 ft 2 kts 270°
2026-04-26 01:50 39.86014 -104.67733 5381 ft 13 kts 270°
2026-04-26 01:51 39.86015 -104.67874 5382 ft 17 kts 270°
2026-04-26 01:51 39.86016 -104.68035 5382 ft 18 kts 271°
2026-04-26 01:51 39.86021 -104.68190 5382 ft 16 kts 280°
2026-04-26 01:51 39.86030 -104.68337 5376 ft 10 kts 265°
2026-04-26 01:52 39.85987 -104.68390 5375 ft 10 kts 192°
2026-04-26 01:52 39.85904 -104.68395 5373 ft 16 kts 180°
2026-04-26 01:52 39.85763 -104.68397 5374 ft 23 kts 180°
2026-04-26 01:52 39.85609 -104.68398 5377 ft 21 kts 180°
2026-04-26 01:53 39.85466 -104.68400 5383 ft 19 kts 180°
2026-04-26 01:53 39.85335 -104.68402 5383 ft 19 kts 180°
2026-04-26 01:53 39.85231 -104.68410 5381 ft 10 kts 205°
2026-04-26 01:53 39.85206 -104.68489 5381 ft 11 kts 269°
2026-04-26 01:54 39.85204 -104.68638 5375 ft 22 kts 268°
2026-04-26 01:54 39.85200 -104.68829 5363 ft 23 kts 269°
2026-04-26 01:54 39.85197 -104.69016 5357 ft 19 kts 269°
2026-04-26 01:54 39.85197 -104.69202 5352 ft 18 kts 271°
2026-04-26 01:55 39.85200 -104.69377 5341 ft 21 kts 271°
2026-04-26 01:55 39.85201 -104.69519 5341 ft 12 kts 270°
2026-04-26 01:55 39.85212 -104.69627 5340 ft 12 kts 303°
2026-04-26 01:55 39.85292 -104.69657 5340 ft 14 kts
2026-04-26 01:56 39.85520 -104.69653 5341 ft 64 kts
2026-04-26 01:56 39.86184 -104.69646 5338 ft 126 kts
2026-04-26 01:56 39.87225 -104.69635 5340 ft 175 kts
2026-04-26 01:56 39.88517 -104.69615 5765 ft 189 kts
2026-04-26 01:57 39.89920 -104.69587 6317 ft 210 kts
2026-04-26 01:57 39.91437 -104.69561 6924 ft 227 kts
2026-04-26 01:57 39.93100 -104.69529 7441 ft 250 kts
2026-04-26 01:57 39.94928 -104.69490 7933 ft 273 kts
2026-04-26 01:58 39.96863 -104.69440 8713 ft 283 kts
2026-04-26 01:58 39.98879 -104.69390 9483 ft 296 kts
2026-04-26 01:58 40.00993 -104.69348 9872 ft 308 kts 360°
2026-04-26 01:58 40.03136 -104.69335 9922 ft 310 kts 354°
2026-04-26 01:59 40.05198 -104.70106 10490 ft 314 kts 335°
2026-04-26 01:59 40.07291 -104.71210 10847 ft 335 kts 335°
2026-04-26 01:59 40.09470 -104.72315 11166 ft 343 kts 336°
2026-04-26 01:59 40.11705 -104.73439 12051 ft 345 kts 336°
2026-04-26 02:00 40.13948 -104.74579 12978 ft 346 kts 336°
2026-04-26 02:00 40.16201 -104.75731 13840 ft 349 kts 335°
2026-04-26 02:00 40.18469 -104.76892 14608 ft 352 kts 335°
2026-04-26 02:00 40.20772 -104.78074 15274 ft 358 kts 334°
2026-04-26 02:01 40.23102 -104.79270 15996 ft 361 kts 334°
2026-04-26 02:01 40.25452 -104.80478 16701 ft 364 kts 334°
2026-04-26 02:01 40.27824 -104.81697 17378 ft 368 kts 334°
2026-04-26 02:01 40.30217 -104.82928 18053 ft 372 kts 334°
2026-04-26 02:02 40.32636 -104.84169 18648 ft 375 kts 334°
2026-04-26 02:02 40.35050 -104.85406 19211 ft 378 kts 334°
2026-04-26 02:02 40.37515 -104.86670 19769 ft 382 kts 334°
2026-04-26 02:02 40.40004 -104.87948 20375 ft 384 kts 333°
2026-04-26 02:03 40.42497 -104.89230 20946 ft 386 kts 333°
2026-04-26 02:03 40.45011 -104.90523 21410 ft 390 kts 333°
2026-04-26 02:03 40.47546 -104.91827 21897 ft 392 kts 333°
2026-04-26 02:03 40.50093 -104.93139 22368 ft 395 kts 333°
2026-04-26 02:04 40.52660 -104.94463 22864 ft 396 kts 332°
2026-04-26 02:04 40.55239 -104.95793 23327 ft 399 kts 332°
2026-04-26 02:04 40.57832 -104.97132 23735 ft 401 kts 332°
2026-04-26 02:04 40.60425 -104.98473 24179 ft 402 kts 332°
2026-04-26 02:05 40.63028 -104.99819 24651 ft 401 kts 331°
2026-04-26 02:05 40.65605 -105.01153 25025 ft 404 kts 331°
2026-04-26 02:05 40.68219 -105.02508 25408 ft 405 kts 331°
2026-04-26 02:05 40.70845 -105.03869 25787 ft 407 kts 330°
2026-04-26 02:06 40.73485 -105.05239 26160 ft 408 kts 330°
2026-04-26 02:06 40.75949 -105.06966 26551 ft 395 kts 314°
2026-04-26 02:06 40.77863 -105.09482 26921 ft 387 kts 303°
2026-04-26 02:06 40.79611 -105.12205 27257 ft 390 kts 303°
2026-04-26 02:07 40.81340 -105.14978 27692 ft 391 kts 302°
2026-04-26 02:07 40.83052 -105.17774 28092 ft 392 kts 302°
2026-04-26 02:07 40.84754 -105.20587 28502 ft 393 kts 301°
2026-04-26 02:07 40.86457 -105.23423 28911 ft 394 kts 301°
2026-04-26 02:08 40.88162 -105.26273 29291 ft 396 kts 301°
2026-04-26 02:08 40.89871 -105.29133 29695 ft 397 kts 301°
2026-04-26 02:08 40.91588 -105.32011 30030 ft 400 kts 301°
2026-04-26 02:08 40.93314 -105.34906 30331 ft 401 kts 301°
2026-04-26 02:09 40.95039 -105.37804 30612 ft 403 kts 301°
2026-04-26 02:09 40.96754 -105.40685 30945 ft 404 kts 301°
2026-04-26 02:09 40.98490 -105.43606 31268 ft 404 kts 301°
2026-04-26 02:09 41.00231 -105.46539 31541 ft 406 kts 301°
2026-04-26 02:10 41.01976 -105.49479 31863 ft 406 kts 301°
2026-04-26 02:10 41.03719 -105.52420 32247 ft 405 kts 300°
2026-04-26 02:10 41.05458 -105.55358 32675 ft 403 kts 300°
2026-04-26 02:10 41.07186 -105.58278 33082 ft 401 kts 300°
2026-04-26 02:11 41.08904 -105.61187 33496 ft 400 kts 300°
2026-04-26 02:11 41.10616 -105.64086 33887 ft 398 kts 300°
2026-04-26 02:11 41.12319 -105.66974 34214 ft 397 kts 300°
2026-04-26 02:11 41.14024 -105.69867 34495 ft 397 kts 300°
2026-04-26 02:12 41.15705 -105.72722 34774 ft 397 kts 300°
2026-04-26 02:12 41.17406 -105.75614 35049 ft 397 kts 300°
2026-04-26 02:12 41.19110 -105.78514 35299 ft 398 kts 300°
2026-04-26 02:12 41.20811 -105.81410 35546 ft 398 kts 300°
2026-04-26 02:13 41.22513 -105.84313 35799 ft 398 kts 300°
2026-04-26 02:13 41.24213 -105.87215 36040 ft 398 kts 300°
2026-04-26 02:13 41.25913 -105.90118 36265 ft 398 kts 300°
2026-04-26 02:13 41.27616 -105.93029 36480 ft 399 kts 300°
2026-04-26 02:14 41.29320 -105.95947 36683 ft 399 kts 300°
2026-04-26 02:14 41.31000 -105.98826 36888 ft 399 kts 300°
2026-04-26 02:14 41.32723 -106.01779 37074 ft 399 kts 301°
2026-04-26 02:14 41.34429 -106.04708 37258 ft 400 kts 301°
2026-04-26 02:15 41.36115 -106.07605 37440 ft 400 kts 301°
2026-04-26 02:15 41.37824 -106.10543 37628 ft 401 kts 301°
2026-04-26 02:15 41.39529 -106.13476 37796 ft 401 kts 301°
2026-04-26 02:16 41.42939 -106.19354 37810 ft 399 kts 301°
2026-04-26 02:16 41.46427 -106.25131 37813 ft 405 kts 308°
2026-04-26 02:17 41.50413 -106.30450 37795 ft 406 kts 307°
2026-04-26 02:17 41.54408 -106.35765 37777 ft 406 kts 308°
2026-04-26 02:18 41.58397 -106.41073 37808 ft 409 kts 308°
2026-04-26 02:18 41.62418 -106.46434 37791 ft 408 kts 307°
2026-04-26 02:19 41.66438 -106.51804 37780 ft 407 kts 307°
2026-04-26 02:19 41.70456 -106.57179 37824 ft 409 kts 307°
2026-04-26 02:20 41.74445 -106.62527 37793 ft 408 kts 307°
2026-04-26 02:20 41.78447 -106.67902 37792 ft 408 kts 307°
2026-04-26 02:21 41.82461 -106.73303 37793 ft 409 kts 307°
2026-04-26 02:21 41.86477 -106.78717 37801 ft 410 kts 307°
2026-04-26 02:22 41.90500 -106.84151 37806 ft 410 kts 307°
2026-04-26 02:22 41.94524 -106.89597 37826 ft 410 kts 307°
2026-04-26 02:23 41.98519 -106.95012 37838 ft 411 kts 307°
2026-04-26 02:23 42.02557 -107.00498 37840 ft 413 kts 307°
2026-04-26 02:24 42.06601 -107.06002 37846 ft 413 kts 307°
2026-04-26 02:24 42.10623 -107.11486 37837 ft 411 kts 307°
2026-04-26 02:25 42.14618 -107.16943 37857 ft 411 kts 307°
2026-04-26 02:25 42.18633 -107.22440 37833 ft 412 kts 307°
2026-04-26 02:26 42.22659 -107.27961 37843 ft 412 kts 307°
2026-04-26 02:26 42.26677 -107.33483 37853 ft 412 kts 307°
2026-04-26 02:27 42.30694 -107.39013 37880 ft 412 kts 307°
2026-04-26 02:27 42.34692 -107.44529 37856 ft 409 kts 307°
2026-04-26 02:28 42.38678 -107.50037 37851 ft 410 kts 307°
2026-04-26 02:28 42.42641 -107.55525 37863 ft 410 kts 307°
2026-04-26 02:29 42.46628 -107.61058 37885 ft 410 kts 307°
2026-04-26 02:29 42.50615 -107.66600 37873 ft 411 kts 307°
2026-04-26 02:30 42.54606 -107.72160 37876 ft 411 kts 307°
2026-04-26 02:30 42.58590 -107.77719 37865 ft 411 kts 307°
2026-04-26 02:31 42.62584 -107.83305 37907 ft 412 kts 307°
2026-04-26 02:31 42.66581 -107.88905 37873 ft 413 kts 307°
2026-04-26 02:32 42.70582 -107.94522 37872 ft 414 kts 307°
2026-04-26 02:32 42.74560 -108.00117 37880 ft 413 kts 306°
2026-04-26 02:33 42.78555 -108.05748 37904 ft 414 kts 307°
2026-04-26 02:33 42.82554 -108.11395 37874 ft 414 kts 307°
2026-04-26 02:34 42.86544 -108.17041 37882 ft 414 kts 307°
2026-04-26 02:34 42.89866 -108.21750 37881 ft 414 kts 307°
2026-04-26 02:35 42.93850 -108.27406 37887 ft 413 kts 307°
2026-04-26 02:35 42.97835 -108.33073 37884 ft 413 kts 307°
2026-04-26 02:36 43.01815 -108.38745 37878 ft 413 kts 307°
2026-04-26 02:36 43.05790 -108.44423 37878 ft 413 kts 306°
2026-04-26 02:37 43.09436 -108.50421 37888 ft 411 kts 303°
2026-04-26 02:37 43.13086 -108.56437 37894 ft 411 kts 303°
2026-04-26 02:38 43.16746 -108.62452 37892 ft 411 kts 303°
2026-04-26 02:38 43.20380 -108.68434 37897 ft 411 kts 303°
2026-04-26 02:39 43.24054 -108.74492 37914 ft 410 kts 303°
2026-04-26 02:39 43.27684 -108.80493 37931 ft 411 kts 303°
2026-04-26 02:40 43.31333 -108.86536 37919 ft 412 kts 303°
2026-04-26 02:40 43.34988 -108.92601 37919 ft 412 kts 303°
2026-04-26 02:41 43.38636 -108.98668 37917 ft 412 kts 303°
2026-04-26 02:41 43.42295 -109.04764 37922 ft 412 kts 303°
2026-04-26 02:42 43.45922 -109.10823 37926 ft 412 kts 303°
2026-04-26 02:42 43.49559 -109.16910 37924 ft 412 kts 303°
2026-04-26 02:43 43.55022 -109.26075 37967 ft 412 kts 303°
2026-04-26 02:43 43.58635 -109.32154 37937 ft 409 kts 303°
2026-04-26 02:44 43.61957 -109.37753 37937 ft 411 kts 303°
2026-04-26 02:44 43.65568 -109.43852 37941 ft 410 kts 302°
2026-04-26 02:45 43.69158 -109.49929 37961 ft 411 kts 302°
2026-04-26 02:45 43.72778 -109.56068 37985 ft 414 kts 303°
2026-04-26 02:46 43.76423 -109.62264 37958 ft 414 kts 303°
2026-04-26 02:46 43.80055 -109.68451 37986 ft 415 kts 303°
2026-04-26 02:47 43.83686 -109.74650 37971 ft 413 kts 303°
2026-04-26 02:47 43.87319 -109.80863 37980 ft 418 kts 303°
2026-04-26 02:48 43.90975 -109.87132 37995 ft 417 kts 303°
2026-04-26 02:48 43.94593 -109.93349 37987 ft 417 kts 303°
2026-04-26 02:49 43.98251 -109.99644 37726 ft 418 kts 303°
2026-04-26 02:49 44.00067 -110.02774 37483 ft 415 kts 303°
2026-04-26 02:49 44.01883 -110.05907 37269 ft 415 kts 303°
2026-04-26 02:50 44.03690 -110.09030 37055 ft 413 kts 303°
2026-04-26 02:50 44.05516 -110.12103 36804 ft 414 kts 308°
2026-04-26 02:50 44.07793 -110.14610 36547 ft 423 kts 322°
2026-04-26 02:50 44.10334 -110.16588 36317 ft 421 kts 322°
2026-04-26 02:51 44.12877 -110.18555 35802 ft 418 kts 322°
2026-04-26 02:51 44.15431 -110.20502 35140 ft 419 kts 322°
2026-04-26 02:51 44.17991 -110.22432 34538 ft 419 kts 322°
2026-04-26 02:51 44.20559 -110.24359 34031 ft 416 kts 321°
2026-04-26 02:52 44.23097 -110.26259 33449 ft 413 kts 321°
2026-04-26 02:52 44.25618 -110.28148 32915 ft 409 kts 321°
2026-04-26 02:52 44.28110 -110.30017 32426 ft 404 kts 321°
2026-04-26 02:52 44.30578 -110.31870 31961 ft 400 kts 321°
2026-04-26 02:53 44.33018 -110.33703 31491 ft 396 kts 321°
2026-04-26 02:53 44.35441 -110.35525 31007 ft 393 kts 321°
2026-04-26 02:53 44.37838 -110.37330 30518 ft 390 kts 321°
2026-04-26 02:53 44.40193 -110.39105 30058 ft 387 kts 321°
2026-04-26 02:54 44.42555 -110.40886 29513 ft 384 kts 321°
2026-04-26 02:54 44.44898 -110.42654 29046 ft 380 kts 321°
2026-04-26 02:54 44.47213 -110.44402 28597 ft 375 kts 321°
2026-04-26 02:54 44.49499 -110.46132 28173 ft 371 kts 321°
2026-04-26 02:55 44.51754 -110.47838 27768 ft 367 kts 322°
2026-04-26 02:55 44.53990 -110.49532 27329 ft 363 kts 322°
2026-04-26 02:55 44.56202 -110.51210 26917 ft 360 kts 322°
2026-04-26 02:55 44.58400 -110.52878 26509 ft 357 kts 322°
2026-04-26 02:56 44.60578 -110.54533 26109 ft 354 kts 322°
2026-04-26 02:56 44.62733 -110.56171 25719 ft 352 kts 322°
2026-04-26 02:56 44.64877 -110.57802 25330 ft 349 kts 323°
2026-04-26 02:56 44.67009 -110.59426 24950 ft 347 kts 323°
2026-04-26 02:57 44.69121 -110.61037 24590 ft 345 kts 324°
2026-04-26 02:57 44.71199 -110.62621 24209 ft 343 kts 324°
2026-04-26 02:57 44.73291 -110.64218 23831 ft 342 kts 325°
2026-04-26 02:57 44.75376 -110.65811 23445 ft 340 kts 325°
2026-04-26 02:58 44.77455 -110.67402 23006 ft 339 kts 325°
2026-04-26 02:58 44.79513 -110.68977 22629 ft 336 kts 325°
2026-04-26 02:58 44.81553 -110.70541 22275 ft 332 kts 325°
2026-04-26 02:58 44.83580 -110.72094 21925 ft 329 kts 325°
2026-04-26 02:59 44.85582 -110.73630 21568 ft 327 kts 325°
2026-04-26 02:59 44.87570 -110.75157 21217 ft 324 kts 325°
2026-04-26 02:59 44.89543 -110.76673 20873 ft 321 kts 325°
2026-04-26 02:59 44.91493 -110.78172 20540 ft 318 kts 325°
2026-04-26 03:00 44.93428 -110.79662 20206 ft 316 kts 324°
2026-04-26 03:00 44.95376 -110.81163 19861 ft 321 kts 325°
2026-04-26 03:00 44.97355 -110.82688 19524 ft 325 kts 325°
2026-04-26 03:00 44.99338 -110.84217 19195 ft 325 kts 325°
2026-04-26 03:01 45.01319 -110.85747 18861 ft 325 kts 325°
2026-04-26 03:01 45.03303 -110.87280 18535 ft 324 kts 325°
2026-04-26 03:01 45.05276 -110.88804 18173 ft 322 kts 325°
2026-04-26 03:01 45.07204 -110.90295 17852 ft 317 kts 326°
2026-04-26 03:02 45.09136 -110.91791 17522 ft 313 kts 326°
2026-04-26 03:02 45.11030 -110.93258 17201 ft 308 kts 326°
2026-04-26 03:02 45.12912 -110.94700 17056 ft 308 kts 329°
2026-04-26 03:02 45.14983 -110.95623 16858 ft 317 kts 342°
2026-04-26 03:03 45.17132 -110.96334 16690 ft 317 kts 342°
2026-04-26 03:03 45.19264 -110.97049 16631 ft 308 kts 342°
2026-04-26 03:03 45.21313 -110.97732 16595 ft 296 kts 341°
2026-04-26 03:03 45.23322 -110.98403 16550 ft 303 kts 342°
2026-04-26 03:04 45.25402 -110.99096 16489 ft 310 kts 342°
2026-04-26 03:04 45.27498 -110.99793 16432 ft 315 kts 342°
2026-04-26 03:04 45.29640 -111.00507 16378 ft 316 kts 342°
2026-04-26 03:04 45.31716 -111.01199 16332 ft 315 kts 342°
2026-04-26 03:05 45.33592 -111.01826 16287 ft 316 kts 342°
2026-04-26 03:05 45.35735 -111.02542 16253 ft 316 kts 342°
2026-04-26 03:05 45.37873 -111.03257 16155 ft 316 kts 342°
2026-04-26 03:05 45.40032 -111.03978 15643 ft 320 kts 343°
2026-04-26 03:06 45.42196 -111.04703 15297 ft 319 kts 342°
2026-04-26 03:06 45.44356 -111.05427 14906 ft 318 kts 342°
2026-04-26 03:06 45.46505 -111.06147 14569 ft 314 kts 343°
2026-04-26 03:06 45.48612 -111.06855 14255 ft 309 kts 343°
2026-04-26 03:07 45.50664 -111.07541 13945 ft 303 kts 343°
2026-04-26 03:07 45.52699 -111.08223 13597 ft 297 kts 343°
2026-04-26 03:07 45.54709 -111.08905 13063 ft 298 kts 343°
2026-04-26 03:07 45.56713 -111.09595 12762 ft 295 kts 343°
2026-04-26 03:08 45.58711 -111.10289 12373 ft 295 kts 343°
2026-04-26 03:08 45.60701 -111.10986 12015 ft 294 kts 343°
2026-04-26 03:08 45.62679 -111.11696 11668 ft 293 kts 343°
2026-04-26 03:08 45.64629 -111.12511 11304 ft 290 kts 333°
2026-04-26 03:09 45.66233 -111.14146 11109 ft 279 kts 313°
2026-04-26 03:09 45.67582 -111.16133 11096 ft 279 kts 311°
2026-04-26 03:09 45.68919 -111.18139 10986 ft 277 kts 311°
2026-04-26 03:09 45.70251 -111.20142 10614 ft 278 kts 311°
2026-04-26 03:10 45.71579 -111.22148 10258 ft 277 kts 311°
2026-04-26 03:10 45.72897 -111.24148 9918 ft 277 kts 311°
2026-04-26 03:10 45.74211 -111.26150 9603 ft 275 kts 311°
2026-04-26 03:10 45.75505 -111.28123 9286 ft 274 kts 311°
2026-04-26 03:11 45.76800 -111.30110 8938 ft 273 kts 311°
2026-04-26 03:11 45.78091 -111.32102 8614 ft 272 kts 311°
2026-04-26 03:11 45.79370 -111.34102 8264 ft 271 kts 311°
2026-04-26 03:11 45.80631 -111.36096 8027 ft 269 kts 311°
2026-04-26 03:12 45.81893 -111.38090 8002 ft 271 kts 311°
2026-04-26 03:12 45.83166 -111.40090 8017 ft 272 kts 311°
2026-04-26 03:12 45.84442 -111.42103 8017 ft 272 kts 311°
2026-04-26 03:12 45.85709 -111.44108 8016 ft 270 kts 311°
2026-04-26 03:13 45.86956 -111.46074 8016 ft 263 kts 311°
2026-04-26 03:13 45.88231 -111.47897 8018 ft 254 kts 326°
2026-04-26 03:13 45.89840 -111.48598 8026 ft 238 kts
2026-04-26 03:13 45.91370 -111.47974 7993 ft 222 kts 27°
2026-04-26 03:14 45.92666 -111.46788 8054 ft 222 kts 41°
2026-04-26 03:14 45.93708 -111.45165 8053 ft 221 kts 53°
2026-04-26 03:14 45.94632 -111.43389 7985 ft 221 kts 62°
2026-04-26 03:14 45.95002 -111.41302 7914 ft 216 kts 94°
2026-04-26 03:15 45.94605 -111.39325 7881 ft 206 kts 121°
2026-04-26 03:15 45.93777 -111.37676 7885 ft 203 kts 133°
2026-04-26 03:15 45.92799 -111.36220 7840 ft 202 kts 136°
2026-04-26 03:15 45.91791 -111.34804 7730 ft 203 kts 137°
2026-04-26 03:16 45.90785 -111.33395 7582 ft 198 kts 136°
2026-04-26 03:16 45.89823 -111.32046 7425 ft 189 kts 136°
2026-04-26 03:16 45.88890 -111.30738 7186 ft 186 kts 136°
2026-04-26 03:16 45.87966 -111.29445 6906 ft 185 kts 136°
2026-04-26 03:17 45.87051 -111.28164 6786 ft 184 kts 136°
2026-04-26 03:17 45.86135 -111.26881 6558 ft 181 kts 136°
2026-04-26 03:17 45.85252 -111.25643 6286 ft 179 kts 135°
2026-04-26 03:17 45.84363 -111.24401 5996 ft 179 kts 134°
2026-04-26 03:18 45.83484 -111.23174 5699 ft 170 kts 134°
2026-04-26 03:18 45.82653 -111.22011 5487 ft 164 kts 134°
2026-04-26 03:18 45.81841 -111.20878 5273 ft 162 kts 133°
2026-04-26 03:18 45.81048 -111.19757 5107 ft 158 kts 134°
2026-04-26 03:19 45.80278 -111.18672 4914 ft 152 kts 136°
2026-04-26 03:19 45.79523 -111.17627 4706 ft 151 kts 137°
2026-04-26 03:19 45.78762 -111.16576 4522 ft 151 kts 137°
2026-04-26 03:19 45.78064 -111.15611 4488 ft 124 kts 136°
2026-04-26 03:20 45.77557 -111.14905 4485 ft 80 kts 136°
2026-04-26 03:20 45.77268 -111.14505 4485 ft 38 kts 136°
2026-04-26 03:20 45.77086 -111.14252 4484 ft 21 kts 141°
2026-04-26 03:20 45.77009 -111.14260 4482 ft 12 kts 221°
2026-04-26 03:21 45.76952 -111.14345 4483 ft 12 kts 224°
2026-04-26 03:21 45.76925 -111.14430 4483 ft 9 kts 291°
2026-04-26 03:21 45.76973 -111.14505 4486 ft 14 kts 315°
2026-04-26 03:21 45.77066 -111.14634 4484 ft 22 kts 316°
2026-04-26 03:22 45.77168 -111.14775 4486 ft 18 kts 316°
2026-04-26 03:22 45.77259 -111.14902 4483 ft 19 kts 316°
2026-04-26 03:22 45.77355 -111.15036 4485 ft 20 kts 315°
2026-04-26 03:22 45.77454 -111.15176 4485 ft 21 kts 316°
2026-04-26 03:23 45.77556 -111.15315 4483 ft 20 kts 316°
2026-04-26 03:23 45.77646 -111.15441 4485 ft 12 kts 316°
2026-04-26 03:23 45.77707 -111.15525 4483 ft 13 kts 316°
2026-04-26 03:23 45.77777 -111.15622 4483 ft 16 kts 316°
2026-04-26 03:24 45.77864 -111.15743 4486 ft 19 kts 316°
2026-04-26 03:24 45.77927 -111.15830 4485 ft 19 kts 316°
2026-04-26 03:24 45.78019 -111.15959 4485 ft 13 kts 316°
2026-04-26 03:24 45.78037 -111.16036 4483 ft 8 kts 241°
2026-04-26 03:25 45.78006 -111.16109 4483 ft 8 kts 230°
2026-04-26 03:25 45.77979 -111.16148 4483 ft 3 kts 225°
2026-04-26 03:25 45.77970 -111.16162 4486 ft 1 kts 226°
2026-04-26 03:25 45.77968 -111.16165 4485 ft 0 kts 226°